This demonstration page uses our WeatherBlox Daily Observations layout. Learn more.

Left ArrowRight Arrow

38.20091, -84.87328

Hourly Observations for February 3, 2020

Temp ( °F °C ) Dew Point ( °F °C ) Humidity (%) Winds ( mph kmh ) Pressure ( in mb ) Visibility ( mi km ) Precip ( " mm )
12:53 am 00:53 Clear 46 7.8 35 1.7 66 66 SW 8 13 29.85 1011 10 16 0.00 0.00
1:53 am 01:53 Clear 45 7.2 35 1.7 68 68 SW 8 13 29.84 1011 10 16 0.00 0.00
2:53 am 02:53 Clear 42 5.6 34 1.1 73 73 SSW 6 9 29.85 1011 10 16 0.00 0.00
3:53 am 03:53 Clear 47 8.3 35 1.7 63 63 S 6 9 29.84 1011 10 16 0.00 0.00
4:53 am 04:53 Clear 46 7.8 35 1.7 66 66 S 7 11 29.85 1011 10 16 0.00 0.00
5:53 am 05:53 Clear 44 6.7 34 1.1 68 68 SSE 5 7 29.85 1011 10 16 0.00 0.00
6:53 am 06:53 Clear 46 7.8 35 1.7 66 66 Calm 29.87 1011 10 16 0.00 0.00
7:53 am 07:53 Sunny 47 8.3 36 2.2 66 66 S 6 9 29.87 1012 10 16 0.00 0.00
8:53 am 08:53 Sunny 51 10.6 37 2.8 59 59 S 9 15 29.88 1012 10 16 0.00 0.00
9:53 am 09:53 Sunny 54 12.2 38 3.3 55 55 S 10 17 29.88 1012 10 16 0.00 0.00
10:53 am 10:53 Sunny 59 15 39 3.9 48 48 SSW 15 24 29.89 1012 10 16 0.00 0.00
11:53 am 11:53 Sunny 61 16.1 39 3.9 44 44 SSW 14 22 29.87 1011 10 16 0.00 0.00
12:53 pm 12:53 Sunny 62 16.7 39 3.9 43 43 SSW 14 22 29.85 1011 10 16 0.00 0.00
1:53 pm 13:53 Sunny 63 17.2 39 3.9 41 41 SSW 10 17 29.82 1010 10 16 0.00 0.00
2:53 pm 14:53 Sunny 66 18.9 40 4.4 39 39 SSW 9 15 29.78 1009 10 16 0.00 0.00
3:53 pm 15:53 Sunny 68 20 42 5.6 39 39 SSW 8 13 29.77 1008 10 16 0.00 0.00
4:53 pm 16:53 Sunny 68 20 38 3.3 33 33 SSW 13 20 29.78 1009 10 16 0.00 0.00
5:53 pm 17:53 Sunny 66 18.9 40 4.4 39 39 S 9 15 29.78 1009 10 16 0.00 0.00
6:53 pm 18:53 Mostly Cloudy 66 18.9 37 2.8 34 34 SSW 12 19 29.79 1009 10 16 0.00 0.00
7:53 pm 19:53 Cloudy 66 18.9 36 2.2 33 33 SSW 18 30 29.79 1009 10 16 0.00 0.00
8:53 pm 20:53 Cloudy 66 18.9 36 2.2 33 33 SSW 17 28 29.79 1009 10 16 0.00 0.00
9:53 pm 21:53 Cloudy 65 18.3 37 2.8 36 36 SSW 16 26 29.82 1010 10 16 0.00 0.00
10:53 pm 22:53 Cloudy with Light Rain 62 16.7 42 5.6 48 48 SSW 16 26 29.80 1009 10 16 0.00 0.00
11:53 pm 23:53 Mostly Clear 63 17.2 40 4.4 43 43 SSW 15 24 29.80 1009 10 16 0.00 0.00

Powered by AerisWeather